FIN1M EFHK-EFHK

Flight info

Callsign FIN1M
Flight time 0h 39m
Altitude 3000
Route HKAP
Aircraft A321/M-SDE2E3FGHIJ5LORVWXY/LB1D1

Departure

Time 2026-04-26 09:30
Airport Helsinki Vantaa Airport (EFHK)

Arrival

Time 2026-04-26 10:09
Airport Helsinki Vantaa Airport (EFHK)
Time Latitude Longitude Altitude Speed Heading
2026-04-26 08:53 60.31825 24.97045 164 ft 0 kts 243°
2026-04-26 09:04 60.31825 24.97046 165 ft 0 kts 243°
2026-04-26 09:04 60.31829 24.97062 165 ft 2 kts 242°
2026-04-26 09:04 60.31836 24.97089 165 ft 2 kts 241°
2026-04-26 09:04 60.31840 24.97107 165 ft 2 kts 241°
2026-04-26 09:05 60.31851 24.97129 165 ft 2 kts 210°
2026-04-26 09:05 60.31865 24.97139 165 ft 2 kts 185°
2026-04-26 09:05 60.31880 24.97137 166 ft 2 kts 160°
2026-04-26 09:05 60.31886 24.97131 166 ft 1 kts 150°
2026-04-26 09:06 60.31889 24.97128 166 ft 0 kts 153°
2026-04-26 09:08 60.31873 24.97145 165 ft 4 kts 152°
2026-04-26 09:08 60.31829 24.97189 165 ft 9 kts 153°
2026-04-26 09:08 60.31755 24.97265 164 ft 13 kts 153°
2026-04-26 09:08 60.31670 24.97354 164 ft 12 kts 152°
2026-04-26 09:09 60.31647 24.97381 164 ft 4 kts 140°
2026-04-26 09:09 60.31633 24.97498 162 ft 12 kts 99°
2026-04-26 09:09 60.31559 24.97617 162 ft 15 kts 153°
2026-04-26 09:09 60.31456 24.97722 162 ft 17 kts 153°
2026-04-26 09:10 60.31347 24.97834 163 ft 18 kts 153°
2026-04-26 09:10 60.31227 24.97956 163 ft 19 kts 153°
2026-04-26 09:10 60.31112 24.98077 164 ft 16 kts 151°
2026-04-26 09:10 60.31019 24.98171 165 ft 15 kts 155°
2026-04-26 09:11 60.30970 24.98214 165 ft 3 kts 147°
2026-04-26 09:11 60.30968 24.98286 163 ft 2 kts 67°
2026-04-26 09:11 60.30969 24.98292 163 ft 0 kts 65°
2026-04-26 09:28 60.30975 24.98317 162 ft 5 kts 64°
2026-04-26 09:28 60.31002 24.98423 158 ft 9 kts 60°
2026-04-26 09:28 60.31037 24.98479 158 ft 6 kts 359°
2026-04-26 09:28 60.31061 24.98465 158 ft 0 kts 335°
2026-04-26 09:29 60.31102 24.98425 158 ft 34 kts 333°
2026-04-26 09:30 60.31596 24.97907 166 ft 121 kts 331°
2026-04-26 09:30 60.32398 24.97055 918 ft 136 kts 334°
2026-04-26 09:30 60.33192 24.96226 2063 ft 130 kts 336°
2026-04-26 09:30 60.33946 24.95447 2982 ft 123 kts 336°
2026-04-26 09:31 60.34705 24.94684 3646 ft 131 kts 338°
2026-04-26 09:31 60.35622 24.93795 3974 ft 164 kts 338°
2026-04-26 09:31 60.36774 24.92699 3921 ft 195 kts 339°
2026-04-26 09:31 60.38113 24.92160 3944 ft 201 kts
2026-04-26 09:32 60.39389 24.93344 3962 ft 213 kts 35°
2026-04-26 09:32 60.40176 24.96023 3971 ft 230 kts 63°
2026-04-26 09:32 60.40546 24.99231 3979 ft 234 kts 69°
2026-04-26 09:32 60.40743 25.02546 3735 ft 244 kts 84°
2026-04-26 09:33 60.40192 25.05896 3472 ft 263 kts 116°
2026-04-26 09:33 60.38849 25.08485 3221 ft 273 kts 143°
2026-04-26 09:33 60.37195 25.10375 2967 ft 274 kts 149°
2026-04-26 09:33 60.35491 25.12150 2707 ft 273 kts 150°
2026-04-26 09:34 60.33812 25.13873 2442 ft 272 kts 150°
2026-04-26 09:34 60.32118 25.15621 2289 ft 271 kts 150°
2026-04-26 09:34 60.30455 25.17351 2279 ft 270 kts 150°
2026-04-26 09:34 60.28762 25.19106 2277 ft 271 kts 150°
2026-04-26 09:35 60.27090 25.20835 2282 ft 271 kts 150°
2026-04-26 09:35 60.25391 25.22585 2279 ft 272 kts 150°
2026-04-26 09:35 60.23701 25.24331 2279 ft 271 kts 150°
2026-04-26 09:35 60.22017 25.26075 2276 ft 271 kts 150°
2026-04-26 09:36 60.20341 25.27815 2275 ft 272 kts 150°
2026-04-26 09:36 60.18656 25.29546 2270 ft 271 kts 154°
2026-04-26 09:36 60.16864 25.30232 2243 ft 254 kts 192°
2026-04-26 09:36 60.15391 25.28832 2242 ft 217 kts 237°
2026-04-26 09:37 60.14780 25.26382 2254 ft 185 kts 270°
2026-04-26 09:37 60.14739 25.23904 2265 ft 172 kts 289°
2026-04-26 09:37 60.15003 25.21627 2268 ft 168 kts 295°
2026-04-26 09:37 60.15297 25.19336 2272 ft 168 kts 294°
2026-04-26 09:38 60.15554 25.17029 2276 ft 169 kts 292°
2026-04-26 09:38 60.15862 25.14877 2251 ft 150 kts 308°
2026-04-26 09:38 60.16528 25.13360 2272 ft 142 kts 329°
2026-04-26 09:38 60.17387 25.12420 2307 ft 135 kts 336°
2026-04-26 09:39 60.18163 25.11627 2322 ft 116 kts 336°
2026-04-26 09:39 60.18863 25.10916 2277 ft 109 kts 336°
2026-04-26 09:39 60.19536 25.10234 2277 ft 109 kts 336°
2026-04-26 09:39 60.20210 25.09550 2276 ft 109 kts 336°
2026-04-26 09:40 60.20888 25.08861 2205 ft 109 kts 336°
2026-04-26 09:40 60.21566 25.08172 2106 ft 109 kts 336°
2026-04-26 09:40 60.22243 25.07483 1971 ft 108 kts 336°
2026-04-26 09:40 60.22922 25.06793 1836 ft 108 kts 335°
2026-04-26 09:41 60.23587 25.06117 1698 ft 108 kts 335°
2026-04-26 09:41 60.24261 25.05431 1547 ft 107 kts 335°
2026-04-26 09:41 60.24924 25.04752 1405 ft 107 kts 335°
2026-04-26 09:41 60.25590 25.04075 1346 ft 107 kts 335°
2026-04-26 09:42 60.26258 25.03390 1244 ft 107 kts 334°
2026-04-26 09:42 60.26914 25.02676 1127 ft 107 kts 334°
2026-04-26 09:42 60.27575 25.02015 988 ft 107 kts 335°
2026-04-26 09:42 60.28238 25.01341 774 ft 106 kts 334°
2026-04-26 09:43 60.28895 25.00666 601 ft 105 kts 334°
2026-04-26 09:43 60.29546 24.99993 469 ft 104 kts 334°
2026-04-26 09:43 60.30202 24.99345 347 ft 104 kts 334°
2026-04-26 09:43 60.30837 24.98694 185 ft 99 kts 333°
2026-04-26 09:44 60.31405 24.98117 158 ft 81 kts 333°
2026-04-26 09:44 60.31915 24.97593 160 ft 95 kts 333°
2026-04-26 09:44 60.32745 24.96749 311 ft 160 kts 333°
2026-04-26 09:44 60.33759 24.95725 1094 ft 158 kts 335°
2026-04-26 09:45 60.34682 24.94749 1798 ft 145 kts 335°
2026-04-26 09:45 60.35572 24.93851 2188 ft 142 kts 337°
2026-04-26 09:45 60.36492 24.93198 2272 ft 142 kts 358°
2026-04-26 09:45 60.37450 24.94090 2285 ft 168 kts 40°
2026-04-26 09:46 60.38038 24.96269 2291 ft 181 kts 57°
2026-04-26 09:46 60.38465 24.98679 2288 ft 184 kts 60°
2026-04-26 09:46 60.38867 25.01147 2289 ft 185 kts 63°
2026-04-26 09:46 60.38899 25.03823 2278 ft 206 kts 98°
2026-04-26 09:47 60.38057 25.06320 2284 ft 222 kts 137°
2026-04-26 09:47 60.36742 25.08006 2294 ft 226 kts 148°
2026-04-26 09:47 60.35350 25.09484 2287 ft 226 kts 150°
2026-04-26 09:47 60.33935 25.10943 2285 ft 228 kts 150°
2026-04-26 09:48 60.32525 25.12383 2281 ft 227 kts 150°
2026-04-26 09:48 60.31106 25.13819 2287 ft 228 kts 150°
2026-04-26 09:48 60.29681 25.15273 2281 ft 227 kts 150°
2026-04-26 09:48 60.28254 25.16733 2285 ft 227 kts 150°
2026-04-26 09:49 60.26849 25.18170 2279 ft 227 kts 150°
2026-04-26 09:49 60.25419 25.19640 2288 ft 234 kts 150°
2026-04-26 09:49 60.23973 25.21119 2279 ft 228 kts 150°
2026-04-26 09:49 60.22572 25.22542 2279 ft 228 kts 150°
2026-04-26 09:50 60.21166 25.23967 2277 ft 227 kts 150°
2026-04-26 09:50 60.19735 25.25415 2278 ft 227 kts 150°
2026-04-26 09:50 60.18322 25.26733 2261 ft 218 kts 163°
2026-04-26 09:50 60.16874 25.26609 2243 ft 204 kts 215°
2026-04-26 09:51 60.16008 25.24699 2265 ft 172 kts 269°
2026-04-26 09:51 60.16042 25.22475 2298 ft 153 kts 298°
2026-04-26 09:51 60.16378 25.20456 2269 ft 158 kts 288°
2026-04-26 09:51 60.16319 25.18197 2214 ft 164 kts 277°
2026-04-26 09:52 60.16245 25.15913 2201 ft 162 kts 284°
2026-04-26 09:52 60.17216 25.12412 2184 ft 144 kts 333°
2026-04-26 09:52 60.18117 25.11478 2089 ft 144 kts 336°
2026-04-26 09:53 60.19007 25.10600 1943 ft 143 kts 337°
2026-04-26 09:53 60.19915 25.09743 1877 ft 143 kts 336°
2026-04-26 09:53 60.20816 25.08869 1775 ft 144 kts 336°
2026-04-26 09:53 60.21720 25.07961 1708 ft 146 kts 335°
2026-04-26 09:54 60.22634 25.07025 1680 ft 146 kts 335°
2026-04-26 09:54 60.23519 25.06129 1664 ft 140 kts 336°
2026-04-26 09:54 60.24399 25.05251 1535 ft 141 kts 335°
2026-04-26 09:54 60.25272 25.04384 1365 ft 136 kts 336°
2026-04-26 09:55 60.26059 25.03619 1280 ft 116 kts 336°
2026-04-26 09:55 60.26740 25.02902 1208 ft 106 kts 334°
2026-04-26 09:55 60.27384 25.02246 1076 ft 105 kts 334°
2026-04-26 09:55 60.28032 25.01578 946 ft 104 kts 334°
2026-04-26 09:56 60.28677 25.00926 796 ft 104 kts 334°
2026-04-26 09:56 60.29311 25.00244 643 ft 104 kts 334°
2026-04-26 09:56 60.29958 24.99603 417 ft 103 kts 333°
2026-04-26 09:56 60.30593 24.98949 248 ft 99 kts 332°
2026-04-26 09:57 60.31185 24.98344 158 ft 89 kts 333°
2026-04-26 09:57 60.31814 24.97701 270 ft 131 kts 334°
2026-04-26 09:57 60.32647 24.96856 1230 ft 141 kts 334°
2026-04-26 09:57 60.33546 24.95903 1940 ft 152 kts 334°
2026-04-26 09:58 60.34495 24.94820 2205 ft 168 kts 334°
2026-04-26 09:58 60.35600 24.93561 2277 ft 195 kts 333°
2026-04-26 09:58 60.36873 24.92163 2274 ft 214 kts 337°
2026-04-26 09:58 60.38335 24.91658 2263 ft 218 kts
2026-04-26 09:59 60.39751 24.93004 2260 ft 232 kts 35°
2026-04-26 09:59 60.40680 24.95795 2268 ft 244 kts 56°
2026-04-26 09:59 60.41352 24.98974 2268 ft 246 kts 60°
2026-04-26 09:59 60.41700 25.02475 2255 ft 262 kts 85°
2026-04-26 10:00 60.41170 25.06067 2259 ft 280 kts 114°
2026-04-26 10:00 60.39817 25.08948 2264 ft 289 kts 142°
2026-04-26 10:00 60.38061 25.11051 2267 ft 291 kts 149°
2026-04-26 10:00 60.36279 25.12955 2261 ft 291 kts 150°
2026-04-26 10:01 60.34473 25.14840 2254 ft 292 kts 150°
2026-04-26 10:01 60.32663 25.16729 2254 ft 292 kts 150°
2026-04-26 10:01 60.30864 25.18599 2253 ft 291 kts 150°
2026-04-26 10:01 60.29068 25.20460 2254 ft 292 kts 150°
2026-04-26 10:02 60.27255 25.22349 2252 ft 290 kts 150°
2026-04-26 10:02 60.25479 25.24201 2253 ft 291 kts 150°
2026-04-26 10:02 60.23658 25.26097 2250 ft 291 kts 150°
2026-04-26 10:02 60.21879 25.27943 2245 ft 291 kts 150°
2026-04-26 10:03 60.20067 25.29814 2244 ft 292 kts 152°
2026-04-26 10:03 60.18093 25.30793 2228 ft 292 kts 184°
2026-04-26 10:03 60.16231 25.29608 2227 ft 278 kts 221°
2026-04-26 10:03 60.15087 25.26750 2235 ft 255 kts 258°
2026-04-26 10:04 60.14965 25.23398 2252 ft 236 kts 287°
2026-04-26 10:04 60.15296 25.20216 2250 ft 235 kts 290°
2026-04-26 10:04 60.15589 25.16952 2252 ft 237 kts 287°
2026-04-26 10:04 60.16040 25.13866 2238 ft 224 kts 308°
2026-04-26 10:05 60.17178 25.12109 2246 ft 200 kts 340°
2026-04-26 10:05 60.18436 25.11196 2249 ft 183 kts 339°
2026-04-26 10:05 60.19553 25.10151 2246 ft 167 kts 336°
2026-04-26 10:05 60.20546 25.09167 2235 ft 154 kts 336°
2026-04-26 10:06 60.21491 25.08219 2108 ft 150 kts 336°
2026-04-26 10:06 60.22427 25.07277 2020 ft 149 kts 336°
2026-04-26 10:06 60.23355 25.06342 1861 ft 150 kts 335°
2026-04-26 10:06 60.24251 25.05434 1594 ft 138 kts 335°
2026-04-26 10:07 60.25069 25.04603 1386 ft 123 kts 334°
2026-04-26 10:07 60.25783 25.03874 1209 ft 107 kts 334°
2026-04-26 10:07 60.26429 25.03210 1089 ft 104 kts 335°
2026-04-26 10:07 60.27075 25.02552 962 ft 103 kts 335°
2026-04-26 10:08 60.27716 25.01875 854 ft 103 kts 333°
2026-04-26 10:08 60.28347 25.01213 765 ft 103 kts 334°
2026-04-26 10:08 60.28988 25.00567 606 ft 103 kts 334°
2026-04-26 10:08 60.29628 24.99934 469 ft 102 kts 334°
2026-04-26 10:09 60.30268 24.99313 319 ft 100 kts 332°
2026-04-26 10:09 60.30876 24.98672 174 ft 96 kts 332°
2026-04-26 10:09 60.31373 24.98148 158 ft 57 kts 332°
2026-04-26 10:09 60.31613 24.97898 158 ft 30 kts 332°
2026-04-26 10:10 60.31688 24.97693 158 ft 16 kts 253°
2026-04-26 10:10 60.31667 24.97602 160 ft 0 kts 244°
2026-04-26 10:10 60.31666 24.97602 160 ft 0 kts 244°
2026-04-26 10:11 60.31663 24.97590 160 ft 1 kts 248°
2026-04-26 10:11 60.31659 24.97554 161 ft 3 kts 269°
2026-04-26 10:11 60.31675 24.97500 162 ft 6 kts 322°
2026-04-26 10:11 60.31728 24.97444 162 ft 9 kts 333°
2026-04-26 10:12 60.31784 24.97385 163 ft 8 kts 332°
2026-04-26 10:12 60.31842 24.97326 163 ft 9 kts 333°
2026-04-26 10:12 60.31902 24.97264 165 ft 9 kts 333°
2026-04-26 10:12 60.31954 24.97210 166 ft 7 kts 333°
2026-04-26 10:13 60.32005 24.97156 167 ft 9 kts 332°
2026-04-26 10:13 60.32070 24.97088 167 ft 11 kts 333°
2026-04-26 10:13 60.32146 24.97009 168 ft 12 kts 332°
2026-04-26 10:13 60.32222 24.96927 169 ft 12 kts 332°
2026-04-26 10:14 60.32301 24.96836 170 ft 10 kts 308°
2026-04-26 10:14 60.32278 24.96724 168 ft 10 kts 225°
2026-04-26 10:14 60.32225 24.96613 167 ft 11 kts 228°
2026-04-26 10:14 60.32171 24.96494 165 ft 12 kts 227°
2026-04-26 10:15 60.32113 24.96365 164 ft 11 kts 228°
2026-04-26 10:15 60.32060 24.96247 164 ft 11 kts 227°
2026-04-26 10:15 60.32004 24.96122 164 ft 12 kts 229°
2026-04-26 10:15 60.31944 24.95986 164 ft 13 kts 228°
2026-04-26 10:16 60.31879 24.95848 164 ft 13 kts 228°
2026-04-26 10:16 60.31821 24.95716 164 ft 12 kts 229°
2026-04-26 10:16 60.31765 24.95596 164 ft 11 kts 227°
2026-04-26 10:16 60.31707 24.95470 164 ft 12 kts 229°
2026-04-26 10:17 60.31649 24.95339 164 ft 12 kts 227°
2026-04-26 10:17 60.31588 24.95210 164 ft 13 kts 229°
2026-04-26 10:17 60.31525 24.95072 164 ft 13 kts 227°
2026-04-26 10:17 60.31455 24.94966 164 ft 11 kts 166°
2026-04-26 10:18 60.31387 24.95111 164 ft 16 kts 131°
2026-04-26 10:18 60.31290 24.95281 164 ft 20 kts 136°
2026-04-26 10:18 60.31190 24.95466 164 ft 17 kts 138°
2026-04-26 10:18 60.31115 24.95530 164 ft 12 kts 209°
2026-04-26 10:19 60.31056 24.95407 164 ft 11 kts 222°
2026-04-26 10:19 60.30992 24.95428 164 ft 9 kts 135°
2026-04-26 10:19 60.30933 24.95385 164 ft 9 kts 216°
2026-04-26 10:19 60.30914 24.95358 164 ft 0 kts 216°